• In Denmark
  • List of Countries
  • For 7 days
  • Water Temperature
  • Satellite Maps
  • Weather Map
  • Weather Widgets
  • user-avatar
    Login

    Hourly Weather Kozlakovka

    Today, 25 September, Tuesday

    Time Temperature Precipitation Wind Pressure Humidity
    00:00 +12°C° 0 mm 2 mps 743 mmHg 69%
    01:00 +12°C° 0 mm 2 mps 743 mmHg 68%
    02:00 +10°C° 0 mm 3 mps 743 mmHg 68%
    03:00 +10°C° 0 mm 2 mps 742 mmHg 69%
    04:00 +10°C° 0 mm 3 mps 742 mmHg 67%
    05:00 +11°C° 0 mm 4 mps 741 mmHg 65%
    06:00 +10°C° 0 mm 5 mps 741 mmHg 63%
    07:00 +11°C° 0 mm 6 mps 741 mmHg 60%
    08:00 +12°C° 0 mm 7 mps 740 mmHg 57%
    09:00 +14°C° 0 mm 7 mps 740 mmHg 54%
    10:00 +15°C° 0.2 mm 7 mps 740 mmHg 55%
    11:00 +16°C° 0.2 mm 7 mps 740 mmHg 56%
    12:00 +17°C° 0.2 mm 7 mps 740 mmHg 58%
    13:00 +17°C° 0.4 mm 6 mps 740 mmHg 61%
    14:00 +17°C° 0.4 mm 6 mps 740 mmHg 64%
    15:00 +17°C° 0.4 mm 5 mps 740 mmHg 68%
    16:00 +16°C° 1.1 mm 5 mps 740 mmHg 73%
    17:00 +14°C° 1.1 mm 5 mps 740 mmHg 79%
    18:00 +13°C° 1.1 mm 5 mps 741 mmHg 85%
    19:00 +12°C° 0.2 mm 5 mps 741 mmHg 84%
    20:00 +10°C° 0.2 mm 5 mps 742 mmHg 82%
    21:00 +11°C° 0.2 mm 4 mps 742 mmHg 81%
    22:00 +11°C° 0 mm 4 mps 743 mmHg 80%
    23:00 +10°C° 0 mm 3 mps 743 mmHg 80%

    Tomorrow, 26 September, Wednesday

    Time Temperature Precipitation Wind Pressure Humidity
    00:00 +10°C° 0 mm 3 mps 744 mmHg 79%
    01:00 +9°C° 0 mm 3 mps 744 mmHg 81%
    02:00 +9°C° 0 mm 3 mps 745 mmHg 82%
    03:00 +8°C° 0 mm 3 mps 745 mmHg 83%
    04:00 +8°C° 0 mm 3 mps 746 mmHg 83%
    05:00 +8°C° 0 mm 3 mps 746 mmHg 83%
    06:00 +8°C° 0 mm 2 mps 747 mmHg 83%
    07:00 +9°C° 0 mm 3 mps 747 mmHg 79%
    08:00 +9°C° 0 mm 3 mps 748 mmHg 74%
    09:00 +10°C° 0 mm 4 mps 748 mmHg 70%
    10:00 +11°C° 0 mm 4 mps 748 mmHg 64%
    11:00 +12°C° 0 mm 4 mps 749 mmHg 59%
    12:00 +13°C° 0 mm 4 mps 749 mmHg 54%
    13:00 +13°C° 0 mm 4 mps 749 mmHg 53%
    14:00 +13°C° 0 mm 4 mps 749 mmHg 52%
    15:00 +13°C° 0 mm 4 mps 750 mmHg 52%
    16:00 +12°C° 0 mm 3 mps 750 mmHg 55%
    17:00 +11°C° 0 mm 3 mps 750 mmHg 59%
    18:00 +10°C° 0 mm 3 mps 750 mmHg 63%
    19:00 +10°C° 0 mm 3 mps 750 mmHg 66%
    20:00 +9°C° 0 mm 2 mps 751 mmHg 68%
    21:00 +8°C° 0 mm 2 mps 751 mmHg 71%
    22:00 +8°C° 0 mm 2 mps 751 mmHg 72%
    23:00 +7°C° 0 mm 2 mps 751 mmHg 73%

    Day after tomorrow, 27 September, Thursday

    Time Temperature Precipitation Wind Pressure Humidity
    00:00 +7°C° 0 mm 2 mps 751 mmHg 75%
    01:00 +7°C° 0 mm 2 mps 751 mmHg 76%
    02:00 +6°C° 0 mm 2 mps 751 mmHg 77%
    03:00 +6°C° 0 mm 2 mps 751 mmHg 78%
    04:00 +5°C° 0 mm 3 mps 751 mmHg 78%
    05:00 +4°C° 0 mm 3 mps 750 mmHg 79%
    06:00 +4°C° 0 mm 3 mps 750 mmHg 80%
    07:00 +6°C° 0 mm 4 mps 750 mmHg 72%
    08:00 +7°C° 0 mm 5 mps 750 mmHg 64%
    09:00 +9°C° 0 mm 6 mps 749 mmHg 56%
    10:00 +10°C° 0 mm 7 mps 749 mmHg 52%
    11:00 +10°C° 0 mm 8 mps 748 mmHg 48%
    12:00 +11°C° 0 mm 8 mps 748 mmHg 45%
    13:00 +11°C° 0 mm 9 mps 747 mmHg 44%
    14:00 +11°C° 0 mm 9 mps 747 mmHg 43%
    15:00 +11°C° 0 mm 9 mps 746 mmHg 42%
    16:00 +10°C° 0.1 mm 8 mps 746 mmHg 45%
    17:00 +9°C° 0.1 mm 8 mps 745 mmHg 48%
    18:00 +7°C° 0.1 mm 8 mps 745 mmHg 51%
    19:00 +9°C° 0.1 mm 8 mps 744 mmHg 51%
    20:00 +8°C° 0.1 mm 9 mps 744 mmHg 51%
    21:00 +8°C° 0.1 mm 9 mps 744 mmHg 52%
    22:00 +8°C° 0.1 mm 9 mps 743 mmHg 59%
    23:00 +7°C° 0.1 mm 8 mps 743 mmHg 66%

    28 September, Friday

    Time Temperature Precipitation Wind Pressure Humidity
    00:00 +7°C° 0.1 mm 8 mps 743 mmHg 73%
    01:00 +8°C° 0 mm 7 mps 743 mmHg 74%
    02:00 +8°C° 0 mm 7 mps 743 mmHg 76%
    03:00 +8°C° 0 mm 6 mps 744 mmHg 78%
    04:00 +8°C° 0 mm 6 mps 744 mmHg 81%
    05:00 +7°C° 0 mm 5 mps 744 mmHg 84%
    06:00 +7°C° 0 mm 5 mps 745 mmHg 88%
    07:00 +8°C° 0 mm 5 mps 745 mmHg 80%
    08:00 +9°C° 0 mm 5 mps 745 mmHg 72%
    09:00 +10°C° 0 mm 5 mps 746 mmHg 64%
    10:00 +11°C° 0 mm 6 mps 746 mmHg 58%
    11:00 +14°C° 0 mm 6 mps 746 mmHg 51%
    12:00 +15°C° 0 mm 6 mps 746 mmHg 44%
    13:00 +15°C° 0 mm 6 mps 746 mmHg 43%
    14:00 +15°C° 0 mm 6 mps 746 mmHg 42%
    15:00 +16°C° 0 mm 5 mps 746 mmHg 41%
    16:00 +15°C° 0 mm 5 mps 745 mmHg 45%
    17:00 +14°C° 0 mm 4 mps 745 mmHg 49%
    18:00 +13°C° 0 mm 4 mps 745 mmHg 53%
    19:00 +12°C° 0 mm 4 mps 745 mmHg 57%
    20:00 +12°C° 0 mm 5 mps 745 mmHg 60%
    21:00 +12°C° 0 mm 5 mps 744 mmHg 64%
    22:00 +11°C° 0 mm 6 mps 744 mmHg 67%
    23:00 +11°C° 0 mm 6 mps 744 mmHg 70%

    29 September, Saturday

    Time Temperature Precipitation Wind Pressure Humidity
    00:00 +13°C° 0 mm 6 mps 744 mmHg 73%
    01:00 +11°C° 0 mm 6 mps 743 mmHg 75%
    02:00 +11°C° 0 mm 6 mps 743 mmHg 76%
    03:00 +11°C° 0 mm 6 mps 743 mmHg 78%
    04:00 +11°C° 0 mm 6 mps 743 mmHg 79%
    05:00 +11°C° 0 mm 6 mps 744 mmHg 80%
    06:00 +11°C° 0 mm 6 mps 744 mmHg 82%
    07:00 +12°C° 0 mm 5 mps 744 mmHg 81%
    08:00 +13°C° 0 mm 5 mps 745 mmHg 80%
    09:00 +13°C° 0 mm 5 mps 745 mmHg 79%
    10:00 +14°C° 0 mm 4 mps 746 mmHg 75%
    11:00 +15°C° 0 mm 4 mps 746 mmHg 71%
    12:00 +16°C° 0 mm 3 mps 746 mmHg 66%
    13:00 +16°C° 0 mm 3 mps 746 mmHg 65%
    14:00 +16°C° 0 mm 3 mps 747 mmHg 63%
    15:00 +16°C° 0 mm 2 mps 747 mmHg 61%
    16:00 +14°C° 0.1 mm 3 mps 747 mmHg 62%
    17:00 +13°C° 0.1 mm 3 mps 747 mmHg 63%
    18:00 +12°C° 0.1 mm 4 mps 747 mmHg 65%
    19:00 +11°C° 0.6 mm 4 mps 748 mmHg 67%
    20:00 +10°C° 0.6 mm 4 mps 748 mmHg 68%
    21:00 +10°C° 0.6 mm 4 mps 748 mmHg 70%
    22:00 +8°C° 1.4 mm 4 mps 748 mmHg 74%
    23:00 +8°C° 1.4 mm 5 mps 749 mmHg 77%

    30 September, Sunday

    Time Temperature Precipitation Wind Pressure Humidity
    00:00 +7°C° 1.4 mm 5 mps 749 mmHg 81%
    01:00 +7°C° 1.2 mm 5 mps 749 mmHg 81%
    02:00 +6°C° 1.2 mm 5 mps 750 mmHg 82%
    03:00 +6°C° 1.2 mm 5 mps 750 mmHg 82%
    04:00 +6°C° 0.8 mm 5 mps 750 mmHg 81%
    05:00 +5°C° 0.8 mm 5 mps 751 mmHg 79%
    06:00 +5°C° 0.8 mm 4 mps 751 mmHg 78%
    07:00 +6°C° 0.1 mm 4 mps 751 mmHg 74%
    08:00 +6°C° 0.1 mm 4 mps 752 mmHg 70%
    09:00 +7°C° 0.1 mm 4 mps 752 mmHg 66%
    10:00 +8°C° 0 mm 4 mps 752 mmHg 60%
    11:00 +10°C° 0 mm 4 mps 752 mmHg 54%
    12:00 +11°C° 0 mm 4 mps 753 mmHg 48%
    13:00 +11°C° 0 mm 4 mps 753 mmHg 46%
    14:00 +11°C° 0 mm 4 mps 752 mmHg 44%
    15:00 +12°C° 0 mm 4 mps 752 mmHg 41%
    16:00 +11°C° 0 mm 3 mps 752 mmHg 44%
    17:00 +10°C° 0 mm 3 mps 752 mmHg 47%
    18:00 +9°C° 0 mm 2 mps 752 mmHg 50%
    19:00 +8°C° 0 mm 2 mps 752 mmHg 51%
    20:00 +7°C° 0 mm 2 mps 753 mmHg 53%
    21:00 +7°C° 0 mm 2 mps 753 mmHg 54%
    22:00 +6°C° 0 mm 2 mps 753 mmHg 55%
    23:00 +5°C° 0 mm 3 mps 753 mmHg 56%
    Show more